TimeGMT,TemperatureF,Dew PointF,Humidity,Sea Level PressureIn,VisibilityMPH,Wind Direction,Wind SpeedMPH,Gust SpeedMPH,PrecipitationIn,Events,Conditions,WindDirDegrees,DateUTC
12:00 AM,47,41,73,29.21,,SSW,26.8,,,,,210,2012-12-29 00:00:00
6:00 AM,42,37,78,29.18,19,SSW,20.1,,,Rain,Light Rain Showers,210,2012-12-29 06:00:00
6:00 AM,42.8,37.4,81,29.15,6.2,SSW,20.7,32.2,N/A,,Scattered Clouds,210,2012-12-29 06:00:00
7:00 AM,41.0,37.4,87,29.18,6.2,SSW,13.8,-,N/A,,Scattered Clouds,210,2012-12-29 07:00:00
7:30 AM,39.2,39.2,100,29.18,6.2,WSW,10.4,-,N/A,Rain,Light Rain Showers,250,2012-12-29 07:30:00
8:00 AM,39.2,37.4,93,29.21,6.2,West,13.8,-,N/A,Rain,Light Rain Showers,280,2012-12-29 08:00:00
8:30 AM,37.4,37.4,100,29.21,6.2,West,6.9,-,N/A,Rain,Light Rain Showers,260,2012-12-29 08:30:00
9:00 AM,37.4,37.4,100,29.21,5.6,WSW,10.4,-,N/A,Rain,Light Rain Showers,240,2012-12-29 09:00:00
9:30 AM,37.4,37.4,100,29.24,6.2,SSW,6.9,-,N/A,,Mostly Cloudy,210,2012-12-29 09:30:00
10:00 AM,37.4,37.4,100,29.24,6.2,SSW,6.9,-,N/A,,Mostly Cloudy,210,2012-12-29 10:00:00
10:30 AM,37.4,37.4,100,29.27,6.2,SSW,9.2,-,N/A,,Mostly Cloudy,210,2012-12-29 10:30:00
11:00 AM,39.2,35.6,87,29.27,6.2,SSW,8.1,-,N/A,,Mostly Cloudy,210,2012-12-29 11:00:00
11:30 AM,39.2,35.6,87,29.27,6.2,SW,9.2,-,N/A,,Mostly Cloudy,230,2012-12-29 11:30:00
12:00 PM,40,37,85,29.29,16,SSW,6.7,,,,Partly Cloudy,210,2012-12-29 12:00:00
12:00 PM,41.0,37.4,87,29.27,6.2,SSW,6.9,-,N/A,,Scattered Clouds,210,2012-12-29 12:00:00
12:30 PM,41.0,37.4,87,29.27,6.2,South,6.9,-,N/A,,Partly Cloudy,190,2012-12-29 12:30:00
1:00 PM,42.8,35.6,76,29.24,6.2,SSW,10.4,-,N/A,,Partly Cloudy,200,2012-12-29 13:00:00
1:30 PM,41.0,35.6,81,29.24,6.2,SSW,11.5,-,N/A,,Scattered Clouds,200,2012-12-29 13:30:00
2:00 PM,39.2,35.6,87,29.24,6.2,SSW,8.1,-,N/A,,Scattered Clouds,200,2012-12-29 14:00:00
2:30 PM,39.2,35.6,87,29.24,4.3,SSW,11.5,-,N/A,Rain,Light Rain Showers,200,2012-12-29 14:30:00
3:00 PM,35.6,35.6,100,29.27,4.3,SW,17.3,-,N/A,Rain,Light Rain Showers,220,2012-12-29 15:00:00
3:30 PM,35.6,35.6,100,29.27,6.2,SW,11.5,-,N/A,,Scattered Clouds,220,2012-12-29 15:30:00
4:00 PM,35.6,35.6,100,29.27,6.2,SSW,9.2,-,N/A,,Scattered Clouds,210,2012-12-29 16:00:00
4:30 PM,35.6,33.8,93,29.27,6.2,SSW,11.5,-,N/A,,Scattered Clouds,210,2012-12-29 16:30:00
5:00 PM,35.6,33.8,93,29.27,6.2,SSW,12.7,-,N/A,Rain,Light Rain Showers,210,2012-12-29 17:00:00
6:00 PM,34,33,97,29.32,19,SSW,8.9,,,,Partly Cloudy,200,2012-12-29 18:00:00
6:00 PM,33.8,33.8,100,29.27,6.2,SSW,9.2,-,N/A,,Partly Cloudy,200,2012-12-29 18:00:00
7:00 PM,35.6,33.8,93,29.30,6.2,SSW,8.1,-,N/A,,Scattered Clouds,210,2012-12-29 19:00:00